| time (UTC) | temp F | wind direction | speed knots | gust knots | rain 1hr in | rain 24hr in | rain mn in | humidity % | barometer mb |
| 20260906131300 | 78 | 244 | 0.0 | 0.0 | 0.00 | 0.00 | 0.00 | 91 | 1013.4 |
| 20260906130800 | 78 | 243 | 0.0 | 0.0 | 0.00 | 0.00 | 0.00 | 92 | 1013.4 |
| 20260906130300 | 78 | 243 | 0.0 | 0.0 | 0.00 | 0.00 | 0.00 | 92 | 1013.5 |
| 20260906125800 | 78 | 340 | 0.0 | 0.0 | 0.00 | 0.00 | 0.00 | 92 | 1013.6 |
| 20260906125300 | 78 | 61 | 0.0 | 0.0 | 0.00 | 0.00 | 0.00 | 92 | 1013.5 |
| 20260906124800 | 77 | 61 | 0.0 | 0.0 | 0.00 | 0.00 | 0.00 | 92 | 1013.4 |
| 20260906123800 | 77 | 61 | 0.0 | 0.9 | 0.00 | 0.00 | 0.00 | 92 | 1013.3 |
| 20260906123300 | 77 | 61 | 0.0 | 2.6 | 0.00 | 0.00 | 0.00 | 92 | 1013.3 |
| 20260906122759 | 77 | 61 | 0.0 | 2.6 | 0.00 | 0.00 | 0.00 | 92 | 1013.3 |
| 20260906122259 | 77 | 15 | 0.9 | 2.6 | 0.00 | 0.00 | 0.00 | 92 | 1013.4 |
| 20260906121759 | 76 | 15 | 0.9 | 0.9 | 0.00 | 0.00 | 0.00 | 93 | 1013.2 |
| 20260906121259 | 76 | 13 | 0.0 | 0.0 | 0.00 | 0.00 | 0.00 | 93 | 1013.0 |
| 20260906120759 | 76 | 13 | 0.0 | 0.0 | 0.00 | 0.00 | 0.00 | 93 | 1012.9 |
| 20260906115759 | 76 | 13 | 0.0 | 0.0 | 0.00 | 0.00 | 0.00 | 92 | 1012.9 |
| 20260906115259 | 76 | 13 | 0.0 | 0.0 | 0.00 | 0.00 | 0.00 | 92 | 1012.9 |
| 20260906114759 | 76 | 13 | 0.0 | 0.0 | 0.00 | 0.00 | 0.00 | 92 | 1013.1 |
| 20260906114259 | 76 | 13 | 0.0 | 0.0 | 0.00 | 0.00 | 0.00 | 92 | 1013.2 |
| 20260906113759 | 76 | 13 | 0.0 | 0.0 | 0.00 | 0.00 | 0.00 | 91 | 1013.0 |
| 20260906113258 | 76 | 13 | 0.0 | 0.0 | 0.00 | 0.00 | 0.00 | 91 | 1013.1 |
| 20260906112758 | 76 | 13 | 0.0 | 0.0 | 0.00 | 0.00 | 0.00 | 91 | 1013.2 |
| 20260906112258 | 76 | 13 | 0.0 | 0.0 | 0.00 | 0.00 | 0.00 | 90 | 1013.3 |
| 20260906111758 | 76 | 13 | 0.0 | 0.0 | 0.00 | 0.00 | 0.00 | 90 | 1013.3 |
| 20260906111258 | 76 | 13 | 0.0 | 0.0 | 0.00 | 0.00 | 0.00 | 90 | 1013.2 |
| 20260906110758 | 76 | 13 | 0.0 | 0.0 | 0.00 | 0.00 | 0.00 | 90 | 1013.3 |
| 20260906110258 | 77 | 13 | 0.0 | 0.0 | 0.00 | 0.00 | 0.00 | 89 | 1013.4 |
| 20260906105758 | 77 | 13 | 0.0 | 0.0 | 0.00 | 0.00 | 0.00 | 89 | 1013.3 |
| 20260906105258 | 77 | 13 | 0.0 | 0.0 | 0.00 | 0.00 | 0.00 | 89 | 1013.3 |
| 20260906104258 | 77 | 13 | 0.0 | 0.0 | 0.00 | 0.00 | 0.00 | 88 | 1013.3 |
| 20260906103757 | 77 | 13 | 0.0 | 0.0 | 0.00 | 0.00 | 0.00 | 88 | 1013.3 |
| 20260906103257 | 77 | 13 | 0.0 | 1.7 | 0.00 | 0.00 | 0.00 | 88 | 1013.3 |
| 20260906102757 | 77 | 13 | 0.0 | 4.3 | 0.00 | 0.00 | 0.00 | 88 | 1013.3 |
| 20260906102257 | 77 | 13 | 0.9 | 4.3 | 0.00 | 0.00 | 0.00 | 88 | 1013.4 |
| 20260906101257 | 77 | 50 | 0.9 | 4.3 | 0.00 | 0.00 | 0.00 | 90 | 1013.6 |
| 20260906100757 | 77 | 14 | 0.9 | 3.5 | 0.00 | 0.00 | 0.00 | 90 | 1013.7 |
| 20260906100257 | 77 | 345 | 0.0 | 0.0 | 0.00 | 0.00 | 0.00 | 90 | 1013.8 |
| 20260906095757 | 77 | 345 | 0.0 | 1.7 | 0.00 | 0.00 | 0.00 | 90 | 1013.8 |
| 20260906095257 | 77 | 345 | 0.0 | 1.7 | 0.00 | 0.00 | 0.00 | 89 | 1013.7 |
| 20260906094757 | 78 | 345 | 0.9 | 3.5 | 0.00 | 0.00 | 0.00 | 89 | 1013.6 |
| 20260906094257 | 78 | 345 | 0.9 | 3.5 | 0.00 | 0.00 | 0.00 | 89 | 1013.5 |
| 20260906093756 | 77 | 29 | 1.7 | 4.3 | 0.00 | 0.00 | 0.00 | 90 | 1013.4 |
| 20260906093257 | 77 | 355 | 2.6 | 4.3 | 0.00 | 0.00 | 0.00 | 90 | 1013.3 |
| 20260906092756 | 77 | 328 | 2.6 | 3.5 | 0.00 | 0.00 | 0.00 | 91 | 1013.2 |
| 20260906091756 | 78 | 285 | 0.0 | 0.0 | 0.00 | 0.00 | 0.00 | 91 | 1013.0 |
| 20260906091256 | 78 | 266 | 0.0 | 0.0 | 0.00 | 0.00 | 0.00 | 91 | 1012.9 |
| 20260906090756 | 78 | 266 | 0.0 | 0.0 | 0.00 | 0.00 | 0.00 | 91 | 1012.8 |
| 20260906090256 | 78 | 266 | 0.0 | 0.0 | 0.00 | 0.00 | 0.00 | 91 | 1012.9 |
| 20260906085756 | 78 | 266 | 0.0 | 0.0 | 0.00 | 0.00 | 0.00 | 91 | 1012.9 |
| 20260906084756 | 78 | 259 | 0.0 | 0.0 | 0.00 | 0.00 | 0.00 | 91 | 1012.7 |
| 20260906083755 | 78 | 249 | 0.0 | 0.0 | 0.00 | 0.00 | 0.00 | 91 | 1012.6 |
| 20260906083255 | 78 | 247 | 0.0 | 0.0 | 0.00 | 0.00 | 0.00 | 91 | 1012.7 |
| 20260906082755 | 78 | 240 | 0.0 | 2.6 | 0.00 | 0.00 | 0.00 | 92 | 1012.7 |
| 20260906082255 | 78 | 234 | 0.0 | 2.6 | 0.00 | 0.00 | 0.00 | 92 | 1012.7 |
| 20260906081755 | 78 | 257 | 0.9 | 2.6 | 0.00 | 0.00 | 0.00 | 92 | 1012.6 |
| 20260906080755 | 78 | 275 | 0.9 | 2.6 | 0.00 | 0.00 | 0.00 | 92 | 1012.7 |
| 20260906080255 | 78 | 275 | 0.9 | 2.6 | 0.00 | 0.00 | 0.00 | 92 | 1012.7 |
| 20260906075755 | 78 | 275 | 0.9 | 2.6 | 0.00 | 0.00 | 0.00 | 92 | 1012.8 |
| 20260906075254 | 78 | 272 | 1.7 | 1.7 | 0.00 | 0.00 | 0.00 | 92 | 1012.8 |
| 20260906074754 | 78 | 272 | 0.0 | 2.6 | 0.00 | 0.00 | 0.00 | 92 | 1012.9 |
| 20260906074254 | 78 | 272 | 0.9 | 2.6 | 0.00 | 0.00 | 0.00 | 92 | 1012.8 |
| 20260906073254 | 77 | 279 | 0.9 | 4.3 | 0.00 | 0.00 | 0.00 | 92 | 1012.8 |
| 20260906072754 | 77 | 289 | 2.6 | 3.5 | 0.00 | 0.00 | 0.00 | 92 | 1012.8 |
| 20260906072254 | 77 | 259 | 0.9 | 0.9 | 0.00 | 0.00 | 0.00 | 92 | 1012.7 |
| 20260906071754 | 77 | 252 | 0.0 | 0.0 | 0.00 | 0.00 | 0.00 | 91 | 1012.6 |
| 20260906071254 | 78 | 252 | 0.0 | 0.0 | 0.00 | 0.00 | 0.00 | 91 | 1012.6 |
| 20260906070754 | 78 | 252 | 0.0 | 0.0 | 0.00 | 0.00 | 0.00 | 91 | 1012.8 |
| 20260906070254 | 78 | 252 | 0.0 | 0.0 | 0.00 | 0.00 | 0.00 | 90 | 1012.9 |
| 20260906065753 | 78 | 252 | 0.0 | 0.0 | 0.00 | 0.00 | 0.00 | 90 | 1012.9 |
| 20260906065253 | 78 | 252 | 0.0 | 0.9 | 0.00 | 0.00 | 0.00 | 90 | 1012.9 |
| 20260906064753 | 78 | 252 | 0.0 | 1.7 | 0.00 | 0.00 | 0.00 | 90 | 1013.0 |
| 20260906062753 | 78 | 221 | 2.6 | 2.6 | 0.00 | 0.00 | 0.00 | 90 | 1012.9 |
| 20260906061753 | 79 | 218 | 0.9 | 1.7 | 0.00 | 0.00 | 0.00 | 90 | 1013.1 |
| 20260906061252 | 79 | 218 | 0.9 | 1.7 | 0.00 | 0.00 | 0.00 | 90 | 1013.2 |
| 20260906060752 | 79 | 217 | 0.9 | 2.6 | 0.00 | 0.00 | 0.00 | 90 | 1013.3 |
| 20260906060252 | 79 | 219 | 1.7 | 2.6 | 0.00 | 0.00 | 0.00 | 90 | 1013.4 |
| 20260906055752 | 79 | 219 | 1.7 | 2.6 | 0.00 | 0.00 | 0.00 | 90 | 1013.4 |
| 20260906055252 | 79 | 219 | 2.6 | 3.5 | 0.00 | 0.00 | 0.00 | 90 | 1013.4 |
| 20260906054752 | 79 | 204 | 0.0 | 3.5 | 0.00 | 0.00 | 0.00 | 90 | 1013.5 |
| 20260906053752 | 79 | 207 | 0.9 | 4.3 | 0.00 | 0.00 | 0.00 | 90 | 1013.3 |
| 20260906053252 | 79 | 232 | 1.7 | 2.6 | 0.00 | 0.00 | 0.00 | 90 | 1013.4 |
| 20260906052752 | 79 | 236 | 0.0 | 0.0 | 0.00 | 0.00 | 0.00 | 90 | 1013.3 |
| 20260906052251 | 79 | 236 | 0.0 | 1.7 | 0.00 | 0.00 | 0.00 | 90 | 1013.5 |
| 20260906051751 | 79 | 236 | 0.0 | 1.7 | 0.00 | 0.00 | 0.00 | 89 | 1013.7 |
| 20260906051252 | 79 | 236 | 0.0 | 2.6 | 0.00 | 0.00 | 0.00 | 89 | 1013.7 |
| 20260906050751 | 80 | 236 | 1.7 | 2.6 | 0.00 | 0.00 | 0.00 | 89 | 1013.7 |
| 20260906050251 | 80 | 239 | 1.7 | 2.6 | 0.00 | 0.00 | 0.00 | 88 | 1013.6 |
| 20260906045751 | 80 | 239 | 0.0 | 2.6 | 0.00 | 0.00 | 0.00 | 89 | 1013.7 |
| 20260906045251 | 80 | 241 | 2.6 | 4.3 | 0.00 | 0.00 | 0.00 | 89 | 1013.5 |
| 20260906044751 | 79 | 267 | 0.9 | 4.3 | 0.00 | 0.00 | 0.00 | 89 | 1013.6 |
| 20260906044251 | 79 | 229 | 1.7 | 3.5 | 0.00 | 0.00 | 0.00 | 90 | 1013.6 |
| 20260906043751 | 79 | 311 | 0.0 | 0.0 | 0.00 | 0.00 | 0.00 | 89 | 1013.7 |
| 20260906043251 | 79 | 311 | 0.0 | 0.0 | 0.00 | 0.00 | 0.00 | 89 | 1013.7 |
| 20260906042251 | 80 | 311 | 0.0 | 0.0 | 0.00 | 0.00 | 0.00 | 89 | 1013.7 |
| 20260906041751 | 80 | 311 | 0.0 | 0.0 | 0.00 | 0.00 | 0.00 | 89 | 1013.7 |
| 20260906041251 | 80 | 312 | 0.0 | 0.0 | 0.00 | 0.00 | 0.00 | 88 | 1013.7 |
| 20260906040250 | 80 | 312 | 0.0 | 2.6 | 0.00 | 0.00 | 0.00 | 88 | 1013.9 |
| 20260906035750 | 80 | 312 | 0.0 | 2.6 | 0.00 | 0.00 | 0.00 | 88 | 1013.9 |
| 20260906035250 | 80 | 316 | 0.0 | 0.0 | 0.00 | 0.00 | 0.00 | 88 | 1013.7 |
| 20260906034750 | 80 | 316 | 0.0 | 0.0 | 0.00 | 0.00 | 0.00 | 88 | 1013.6 |
| 20260906033750 | 81 | 148 | 0.0 | 0.0 | 0.00 | 0.00 | 0.00 | 87 | 1013.6 |
| 20260906033250 | 81 | 148 | 0.0 | 0.0 | 0.00 | 0.00 | 0.00 | 86 | 1013.4 |
| 20260906032750 | 81 | 148 | 0.0 | 0.0 | 0.00 | 0.00 | 0.00 | 86 | 1013.5 |
| 20260906032250 | 81 | 148 | 0.0 | 0.0 | 0.00 | 0.00 | 0.00 | 86 | 1013.6 |
| 20260906031750 | 82 | 148 | 0.0 | 0.0 | 0.00 | 0.00 | 0.00 | 86 | 1013.7 |
| 20260906031250 | 82 | 148 | 0.0 | 1.7 | 0.00 | 0.00 | 0.00 | 85 | 1013.9 |
| 20260906030749 | 82 | 148 | 0.0 | 1.7 | 0.00 | 0.00 | 0.00 | 85 | 1013.7 |
| 20260906030249 | 82 | 148 | 1.7 | 5.2 | 0.00 | 0.00 | 0.00 | 85 | 1013.5 |
| 20260906025749 | 82 | 140 | 0.9 | 5.2 | 0.00 | 0.00 | 0.00 | 85 | 1013.8 |
| 20260906025249 | 82 | 91 | 2.6 | 5.2 | 0.00 | 0.00 | 0.00 | 85 | 1013.8 |
| 20260906024249 | 82 | 212 | 0.9 | 3.5 | 0.00 | 0.00 | 0.00 | 84 | 1013.3 |
| 20260906023749 | 82 | 212 | 0.9 | 3.5 | 0.00 | 0.00 | 0.00 | 84 | 1013.1 |
| 20260906023249 | 83 | 211 | 0.9 | 2.6 | 0.00 | 0.00 | 0.00 | 84 | 1013.1 |
| 20260906022748 | 83 | 211 | 0.9 | 2.6 | 0.00 | 0.00 | 0.00 | 83 | 1013.2 |
| 20260906022249 | 83 | 211 | 0.9 | 2.6 | 0.00 | 0.00 | 0.00 | 83 | 1013.2 |
| 20260906021248 | 83 | 211 | 1.7 | 2.6 | 0.00 | 0.00 | 0.00 | 83 | 1013.2 |
| 20260906020748 | 83 | 212 | 1.7 | 2.6 | 0.00 | 0.00 | 0.00 | 82 | 1013.2 |
| 20260906020248 | 84 | 212 | 2.6 | 3.5 | 0.00 | 0.00 | 0.00 | 82 | 1013.1 |
| 20260906015748 | 84 | 212 | 1.7 | 6.1 | 0.00 | 0.00 | 0.00 | 82 | 1013.0 |
| 20260906015248 | 84 | 208 | 2.6 | 6.1 | 0.00 | 0.00 | 0.00 | 82 | 1012.9 |
| 20260906014748 | 84 | 253 | 3.5 | 5.2 | 0.00 | 0.00 | 0.00 | 81 | 1012.6 |
| 20260906014248 | 84 | 257 | 1.7 | 6.1 | 0.00 | 0.00 | 0.00 | 81 | 1012.7 |
| 20260906013748 | 84 | 218 | 4.3 | 6.1 | 0.00 | 0.00 | 0.00 | 81 | 1012.7 |
| 20260906013248 | 85 | 196 | 2.6 | 4.3 | 0.00 | 0.00 | 0.00 | 80 | 1012.6 |
| 20260906012247 | 85 | 234 | 4.3 | 7.8 | 0.00 | 0.00 | 0.00 | 80 | 1012.4 |
| 20260906011747 | 85 | 226 | 0.9 | 7.0 | 0.00 | 0.00 | 0.00 | 79 | 1012.4 |
| 20260906010817 | 86 | 243 | 4.3 | 7.0 | 0.00 | 0.00 | 0.00 | 79 | 1012.3 |
| 20260906010317 | 86 | 224 | 1.7 | 7.8 | 0.00 | 0.00 | 0.00 | 78 | 1012.1 |
| 20260906005817 | 86 | 211 | 3.5 | 7.8 | 0.00 | 0.00 | 0.00 | 78 | 1011.7 |
| 20260906005317 | 86 | 227 | 2.6 | 6.1 | 0.00 | 0.00 | 0.00 | 77 | 1011.6 |
| 20260906004746 | 87 | 225 | 5.2 | 6.1 | 0.00 | 0.00 | 0.00 | 77 | 1011.4 |
| 20260906004246 | 87 | 231 | 2.6 | 7.8 | 0.00 | 0.00 | 0.00 | 76 | 1011.4 |
| 20260906003746 | 87 | 207 | 2.6 | 7.8 | 0.00 | 0.00 | 0.00 | 75 | 1011.5 |
| 20260906002816 | 88 | 207 | 4.3 | 6.1 | 0.00 | 0.00 | 0.00 | 74 | 1011.5 |
| 20260906001245 | 89 | 240 | 2.6 | 5.2 | 0.00 | 0.00 | 0.00 | 73 | 1011.6 |
| 20260906000745 | 89 | 216 | 1.7 | 6.1 | 0.00 | 0.00 | 0.00 | 72 | 1011.6 |
| 20260906000315 | 90 | 206 | 3.5 | 6.1 | 0.00 | 0.00 | 0.00 | 71 | 1011.6 |
| 20260905235815 | 90 | 217 | 3.5 | 7.0 | 0.00 | 0.00 | 0.00 | 71 | 1011.6 |
| 20260905235315 | 91 | 215 | 3.5 | 7.8 | 0.00 | 0.00 | 0.00 | 70 | 1011.5 |
| 20260905234745 | 91 | 205 | 0.9 | 7.8 | 0.00 | 0.00 | 0.00 | 69 | 1011.5 |
| 20260905234315 | 91 | 213 | 3.5 | 7.0 | 0.00 | 0.00 | 0.00 | 69 | 1011.4 |
| 20260905233314 | 92 | 228 | 1.7 | 4.3 | 0.00 | 0.00 | 0.00 | 67 | 1011.4 |
| 20260905232814 | 92 | 210 | 1.7 | 5.2 | 0.00 | 0.00 | 0.00 | 67 | 1011.3 |
| 20260905232314 | 92 | 207 | 2.6 | 7.8 | 0.00 | 0.00 | 0.00 | 66 | 1011.4 |
| 20260905231814 | 93 | 196 | 3.5 | 7.8 | 0.00 | 0.00 | 0.00 | 66 | 1011.4 |
| 20260905231314 | 93 | 142 | 4.3 | 7.8 | 0.00 | 0.00 | 0.00 | 65 | 1011.4 |
| 20260905230815 | 93 | 167 | 3.5 | 7.0 | 0.00 | 0.00 | 0.00 | 64 | 1011.4 |
| 20260905225814 | 94 | 185 | 2.6 | 8.7 | 0.00 | 0.00 | 0.00 | 62 | 1011.4 |
| 20260905224814 | 94 | 161 | 4.3 | 7.8 | 0.00 | 0.00 | 0.00 | 60 | 1011.1 |
| 20260905224314 | 94 | 176 | 1.7 | 3.5 | 0.00 | 0.00 | 0.00 | 59 | 1011.1 |
| 20260905223814 | 93 | 171 | 1.7 | 3.5 | 0.00 | 0.00 | 0.00 | 59 | 1011.1 |
| 20260905223313 | 93 | 98 | 0.0 | 0.0 | 0.00 | 0.00 | 0.00 | 60 | 1011.1 |
| 20260905222313 | 96 | 97 | 0.0 | 1.7 | 0.00 | 0.00 | 0.00 | 56 | 1011.1 |
| 20260905221813 | 97 | 97 | 0.0 | 1.7 | 0.00 | 0.00 | 0.00 | 54 | 1011.1 |
| 20260905220312 | 98 | 96 | 0.9 | 4.3 | 0.00 | 0.00 | 0.00 | 47 | 1011.2 |
| 20260905215812 | 99 | 104 | 0.0 | 4.3 | 0.00 | 0.00 | 0.00 | 47 | 1011.2 |
| 20260905214812 | 99 | 101 | 3.5 | 6.1 | 0.00 | 0.00 | 0.00 | 47 | 1011.2 |
| 20260905213812 | 99 | 46 | 3.5 | 7.0 | 0.00 | 0.00 | 0.00 | 47 | 1011.2 |
| 20260905212311 | 99 | 26 | 5.2 | 8.7 | 0.00 | 0.00 | 0.00 | 48 | 1011.3 |
| 20260905211811 | 98 | 24 | 1.7 | 7.0 | 0.00 | 0.00 | 0.00 | 48 | 1011.4 |
| 20260905211311 | 99 | 26 | 3.5 | 7.0 | 0.00 | 0.00 | 0.00 | 47 | 1011.5 |
| 20260905210811 | 98 | 113 | 1.7 | 7.0 | 0.00 | 0.00 | 0.00 | 47 | 1011.4 |
| 20260905205811 | 99 | 29 | 4.3 | 7.0 | 0.00 | 0.00 | 0.00 | 49 | 1011.5 |
| 20260905205311 | 98 | 309 | 3.5 | 7.0 | 0.00 | 0.00 | 0.00 | 49 | 1011.6 |
| 20260905204811 | 98 | 79 | 3.5 | 7.0 | 0.00 | 0.00 | 0.00 | 50 | 1011.7 |
| 20260905204311 | 99 | 119 | 0.9 | 7.8 | 0.00 | 0.00 | 0.00 | 48 | 1011.7 |
| 20260905203811 | 99 | 67 | 1.7 | 8.7 | 0.00 | 0.00 | 0.00 | 47 | 1011.7 |
| 20260905202310 | 99 | 43 | 7.8 | 9.6 | 0.00 | 0.00 | 0.00 | 48 | 1011.7 |
| 20260905201810 | 98 | 101 | 5.2 | 7.8 | 0.00 | 0.00 | 0.00 | 49 | 1011.7 |
| 20260905201310 | 98 | 136 | 1.7 | 7.8 | 0.00 | 0.00 | 0.00 | 50 | 1011.8 |
| 20260905200310 | 98 | 104 | 2.6 | 8.7 | 0.00 | 0.00 | 0.00 | 48 | 1011.9 |
| 20260905195809 | 98 | 59 | 0.9 | 11.3 | 0.00 | 0.00 | 0.00 | 48 | 1011.9 |
| 20260905195310 | 98 | 88 | 7.8 | 11.3 | 0.00 | 0.00 | 0.00 | 49 | 1012.0 |
| 20260905194809 | 99 | 57 | 1.7 | 7.0 | 0.00 | 0.00 | 0.00 | 49 | 1012.1 |
| 20260905194309 | 98 | 128 | 3.5 | 7.8 | 0.00 | 0.00 | 0.00 | 49 | 1012.2 |
| 20260905193309 | 99 | 90 | 1.7 | 8.7 | 0.00 | 0.00 | 0.00 | 49 | 1012.4 |
| 20260905192309 | 98 | 59 | 4.3 | 8.7 | 0.00 | 0.00 | 0.00 | 49 | 1012.4 |
| 20260905191809 | 98 | 125 | 6.1 | 8.7 | 0.00 | 0.00 | 0.00 | 50 | 1012.4 |
| 20260905191309 | 98 | 101 | 6.1 | 8.7 | 0.00 | 0.00 | 0.00 | 49 | 1012.5 |
| 20260905190809 | 98 | 101 | 7.8 | 8.7 | 0.00 | 0.00 | 0.00 | 51 | 1012.7 |
| 20260905190308 | 97 | 148 | 7.0 | 8.7 | 0.00 | 0.00 | 0.00 | 52 | 1012.7 |
| 20260905185808 | 98 | 141 | 2.6 | 8.7 | 0.00 | 0.00 | 0.00 | 50 | 1012.9 |
| 20260905184808 | 98 | 115 | 6.1 | 8.7 | 0.00 | 0.00 | 0.00 | 51 | 1013.1 |
| 20260905184308 | 97 | 49 | 3.5 | 10.4 | 0.00 | 0.00 | 0.00 | 51 | 1013.1 |
| 20260905183808 | 97 | 139 | 2.6 | 10.4 | 0.00 | 0.00 | 0.00 | 53 | 1013.2 |
| 20260905182807 | 97 | 139 | 2.6 | 7.8 | 0.00 | 0.00 | 0.00 | 52 | 1013.4 |
| 20260905182307 | 97 | 113 | 2.6 | 7.8 | 0.00 | 0.00 | 0.00 | 54 | 1013.5 |
| 20260905181307 | 97 | 38 | 0.9 | 10.4 | 0.00 | 0.00 | 0.00 | 55 | 1013.7 |
| 20260905180807 | 97 | 44 | 4.3 | 10.4 | 0.00 | 0.00 | 0.00 | 55 | 1013.7 |
| 20260905180306 | 96 | 66 | 4.3 | 12.2 | 0.00 | 0.00 | 0.00 | 55 | 1013.7 |
| 20260905175807 | 96 | 328 | 7.0 | 12.2 | 0.00 | 0.00 | 0.00 | 54 | 1013.9 |
| 20260905175307 | 97 | 96 | 7.0 | 8.7 | 0.00 | 0.00 | 0.00 | 55 | 1013.9 |
| 20260905174806 | 97 | 57 | 4.3 | 8.7 | 0.00 | 0.00 | 0.00 | 54 | 1013.9 |
| 20260905173806 | 96 | 86 | 1.7 | 8.7 | 0.00 | 0.00 | 0.00 | 55 | 1014.1 |
| 20260905173306 | 96 | 57 | 0.9 | 9.6 | 0.00 | 0.00 | 0.00 | 55 | 1014.2 |
| 20260905171805 | 96 | 44 | 2.6 | 8.7 | 0.00 | 0.00 | 0.00 | 58 | 1014.4 |
| 20260905171306 | 96 | 39 | 5.2 | 7.8 | 0.00 | 0.00 | 0.00 | 58 | 1014.5 |
| 20260905170805 | 96 | 63 | 2.6 | 7.8 | 0.00 | 0.00 | 0.00 | 58 | 1014.6 |
| 20260905170305 | 95 | 101 | 2.6 | 7.8 | 0.00 | 0.00 | 0.00 | 58 | 1014.6 |
| 20260905165805 | 95 | 46 | 1.7 | 7.8 | 0.00 | 0.00 | 0.00 | 60 | 1014.7 |
| 20260905165306 | 95 | 123 | 6.1 | 7.8 | 0.00 | 0.00 | 0.00 | 59 | 1014.8 |
| 20260905164805 | 95 | 111 | 5.2 | 7.8 | 0.00 | 0.00 | 0.00 | 60 | 1014.9 |
| 20260905164305 | 95 | 51 | 2.6 | 7.8 | 0.00 | 0.00 | 0.00 | 61 | 1014.9 |
| 20260905163804 | 94 | 73 | 2.6 | 7.8 | 0.00 | 0.00 | 0.00 | 61 | 1014.9 |
| 20260905162805 | 94 | 119 | 3.5 | 7.8 | 0.00 | 0.00 | 0.00 | 63 | 1015.0 |
| 20260905162306 | 94 | 96 | 0.9 | 9.6 | 0.00 | 0.00 | 0.00 | 62 | 1015.1 |
| 20260905161805 | 94 | 115 | 6.1 | 9.6 | 0.00 | 0.00 | 0.00 | 64 | 1015.1 |
| 20260905161304 | 93 | 85 | 7.0 | 9.6 | 0.00 | 0.00 | 0.00 | 65 | 1015.1 |
| 20260905160804 | 93 | 350 | 1.7 | 8.7 | 0.00 | 0.00 | 0.00 | 64 | 1015.0 |
| 20260905160304 | 93 | 337 | 1.7 | 7.0 | 0.00 | 0.00 | 0.00 | 65 | 1015.0 |
| 20260905155804 | 92 | 17 | 2.6 | 7.8 | 0.00 | 0.00 | 0.00 | 66 | 1014.9 |
| 20260905155306 | 92 | 45 | 0.9 | 7.8 | 0.00 | 0.00 | 0.00 | 66 | 1014.9 |
| 20260905154804 | 92 | 17 | 7.0 | 7.0 | 0.00 | 0.00 | 0.00 | 65 | 1014.9 |
| 20260905154303 | 92 | 48 | 5.2 | 5.2 | 0.00 | 0.00 | 0.00 | 67 | 1014.9 |
| 20260905153803 | 91 | 338 | 1.7 | 7.0 | 0.00 | 0.00 | 0.00 | 67 | 1014.9 |
| 20260905153303 | 91 | 126 | 2.6 | 7.8 | 0.00 | 0.00 | 0.00 | 69 | 1015.0 |
| 20260905152803 | 90 | 315 | 3.5 | 8.7 | 0.00 | 0.00 | 0.00 | 69 | 1014.8 |
| 20260905152306 | 90 | 11 | 1.7 | 8.7 | 0.00 | 0.00 | 0.00 | 69 | 1014.8 |
| 20260905151333 | 90 | 30 | 3.5 | 5.2 | 0.00 | 0.00 | 0.00 | 71 | 1015.0 |
| 20260905145754 | 89 | 44 | 3.5 | 5.2 | 0.00 | 0.00 | 0.00 | 73 | 1015.0 |
| 20260905145254 | 88 | 28 | 4.3 | 5.2 | 0.00 | 0.00 | 0.00 | 74 | 1015.0 |
| 20260905143754 | 87 | 84 | 0.0 | 7.0 | 0.00 | 0.00 | 0.00 | 78 | 1015.1 |
| 20260905143254 | 86 | 323 | 4.3 | 5.2 | 0.00 | 0.00 | 0.00 | 78 | 1015.2 |
| 20260905142754 | 86 | 35 | 1.7 | 5.2 | 0.00 | 0.00 | 0.00 | 78 | 1015.3 |
| 20260905142254 | 86 | 23 | 0.9 | 4.3 | 0.00 | 0.00 | 0.00 | 79 | 1015.3 |
| 20260905141253 | 85 | 47 | 1.7 | 4.3 | 0.00 | 0.00 | 0.00 | 79 | 1015.3 |
| 20260905140753 | 85 | 91 | 0.0 | 4.3 | 0.00 | 0.00 | 0.00 | 80 | 1015.4 |
| 20260905140253 | 84 | 101 | 2.6 | 4.3 | 0.00 | 0.00 | 0.00 | 81 | 1015.4 |
| 20260905135753 | 84 | 55 | 2.6 | 3.5 | 0.00 | 0.00 | 0.00 | 81 | 1015.4 |
| 20260905135253 | 84 | 82 | 2.6 | 3.5 | 0.00 | 0.00 | 0.00 | 82 | 1015.5 |
| 20260905134753 | 83 | 57 | 1.7 | 3.5 | 0.00 | 0.00 | 0.00 | 82 | 1015.5 |
| 20260905134253 | 83 | 42 | 0.0 | 4.3 | 0.00 | 0.00 | 0.00 | 83 | 1015.6 |
| 20260905133753 | 83 | 41 | 0.9 | 4.3 | 0.00 | 0.00 | 0.00 | 84 | 1015.6 |
| 20260905132753 | 81 | 103 | 1.7 | 2.6 | 0.00 | 0.00 | 0.00 | 87 | 1015.5 |
| 20260905132253 | 81 | 104 | 0.0 | 0.9 | 0.00 | 0.00 | 0.00 | 88 | 1015.5 |
| 20260905131753 | 80 | 201 | 0.0 | 0.9 | 0.00 | 0.00 | 0.00 | 90 | 1015.5 |